Regional Weather Roundup
Issued by NWS Wakefield, VA

Home | Current Version | Previous Version | Text Only | Print | Product List | Glossary On
Versions: 1 2 3 4 5 6 7 8 9 10 11 12 13 14 15 16 17 18 19 20 21 22 23 24 25 26 27 28 29 30 31 32 33
000
ASUS41 KAKQ 221510
RWRAKQ

REGIONAL WEATHER ROUNDUP
NATIONAL WEATHER SERVICE WAKEFIELD VA
1100 AM EDT WED OCT 22 2014

Note: "fair" indicates few or no clouds below 12,000 feet with no
significant weather and/or obstructions to visibility. * = Denotes
station may not report precipitation (e.g., rain,snow,etc.),
thunder or fog.

VAZ042-051-052>054-056-221600-
NORTHERN VIRGINIA

CITY           SKY/WX    TMP DP  RH WIND       PRES   REMARKS
WASH NATIONAL  NOT AVBL
DULLES         NOT AVBL
FORT BELVOIR   NOT AVBL
QUANTICO       LGT RAIN  54  50  86 N15G26    29.94S FOG
FREDERICKSBRG* NOT AVBL
STAFFORD*      NOT AVBL
WARRENTON      NOT AVBL
CULPEPER*      NOT AVBL
MANASSAS*      NOT AVBL
LEESBURG*      NOT AVBL
WINCHESTER     NOT AVBL
FRONT ROYAL*   NOT AVBL
LURAY*         NOT AVBL
$$

VAZ048-049-060>072-079>083-221600-
CENTRAL AND SOUTH CENTRAL VIRGINIA...AND NORTH CENTRAL NORTH CAROLINA

CITY           SKY/WX    TMP DP  RH WIND       PRES   REMARKS
RICHMOND       NOT AVBL
CHESTERFIELD*  NOT AVBL
PETERSBURG*    NOT AVBL
HANOVER        NOT AVBL
TAPPAHANNOCK*  NOT AVBL
CHARLOTTSVILLE NOT AVBL
ORANGE*        NOT AVBL
LOUISA*        NOT AVBL
FARMVILLE*     NOT AVBL
CREWE*         NOT AVBL
FORT PICKETT*  NOT AVBL
LUNENBURG*     NOT AVBL
SOUTH HILL*    NOT AVBL
LAWRENCEVILLE* NOT AVBL
ROANOKE RAPIDS NOT AVBL
RALEIGH        NOT AVBL
$$

VAZ088>098-221600-
SOUTHEAST VIRGINIA

CITY           SKY/WX    TMP DP  RH WIND       PRES   REMARKS
NORFOLK        NOT AVBL
VIRGINIA BEACH LGT RAIN  57  53  86 W15       29.82S FOG
NORFOLK NAVAL  PTSUNNY   58  52  80 NW18G26   29.85S
WEST POINT*    NOT AVBL
NEWPORT NEWS   NOT AVBL
LANGLEY AFB    NOT AVBL
FORT EUSTIS    NOT AVBL
WILLIAMSBURG*  NOT AVBL
HR EXEC AP*    NOT AVBL
FRANKLIN*      NOT AVBL
WAKEFIELD      NOT AVBL
$$

VAZ020-022-025-037-045-221600-
WEST CENTRAL AND SOUTHWEST VIRGINIA

CITY           SKY/WX    TMP DP  RH WIND       PRES   REMARKS
STAUNTON*      NOT AVBL
HOT SPRINGS VA NOT AVBL
LYNCHBURG      NOT AVBL
DANVILLE       NOT AVBL
SOUTH BOSTON*  NOT AVBL
MARTINSVILLE   NOT AVBL
ROANOKE        NOT AVBL
BLACKSBURG     NOT AVBL
DUBLIN*        NOT AVBL
MARION*        NOT AVBL
HILLSVILLE*    NOT AVBL
RICHLANDS*     NOT AVBL
WISE*          NOT AVBL
ABINGDON*      NOT AVBL
$$

MDZ021>025-VAZ099-100-221600-
SOUTHERN MARYLAND AND THE DELMARVA PENINSULA

CITY           SKY/WX    TMP DP  RH WIND       PRES   REMARKS
PATUXENT RIVER LGT RAIN  55  52  89 N15       29.84F FOG
BAY BRIDGE APT NOT AVBL
LEONARDTOWN    NOT AVBL
DOVER          CLOUDY    57  57 100 N18G24    29.82S
GEORGETOWN     NOT AVBL
EASTON         NOT AVBL
CAMBRIDGE      NOT AVBL
SALISBURY      NOT AVBL
OCEAN CITY     NOT AVBL
WALLOPS ISLAND NOT AVBL
ACCOMACK*      NOT AVBL
$$

NCZ012>017-030>032-221600-
EASTERN NORTH CAROLINA

CITY           SKY/WX    TMP DP  RH WIND       PRES   REMARKS
ELIZABETH CITY NOT AVBL
AHOSKIE*       NOT AVBL
EDENTON*       NOT AVBL
CURRITUCK*     NOT AVBL
KILL DEVIL HLS NOT AVBL
MANTEO         NOT AVBL
CAPE HATTERAS  NOT AVBL
TARBORO*       NOT AVBL
GOLDSBORO      NOT AVBL
WASHINGTON     NOT AVBL
GREENVILLE     NOT AVBL
NEW BERN       NOT AVBL
WILMINGTON     NOT AVBL
$$

VAZ048-221600-
ELSEWHERE

CITY           SKY/WX    TMP DP  RH WIND       PRES   REMARKS
HARRISBURG PA  NOT AVBL
BALTIMORE      NOT AVBL
ANNAPOLIS      CLOUDY    56  53  90 NW14      29.89S
ANDREWS AFB    NOT AVBL
WILMINGTON DE  NOT AVBL
PHILADELPHIA   NOT AVBL
WILDWOOD NJ*   NOT AVBL
ATLANTIC CITY  CLOUDY    58  54  86 N15       29.81F
GREENSBORO     NOT AVBL
ROCKY MOUNT    NOT AVBL
FAYETTEVILLE   NOT AVBL
CHARLOTTE      NOT AVBL
$$

VAZ100-221600-
MARINE

STATION/POSITION TIME  TEMP    WIND        PRES    WAVE   SWELL
                       AIR SEA DIR/SP/G            HT/PER HT/PER
                 (UTC) (F)     (DEG/KT/KT) (MB)    (FT/S) (FT/S)
44066 TX TWR #4  1400   59 66  340/ 12/ 19 1007.7R
CAPE MAY NJ      1400   59 67   10/  5/ 11 1008.9F
LEWES DE         1400   59 63   20/ 23/ 27 1009.4F
15NM E FENWICK I 1400   61 66   10/ 23/ 27 1007.5F   4/ 9   2/ 9
OCEAN-CITY-INLET 1400   59 65   10/ 19/ 23 1007.8F
WACHAPREAGUE VA  1400   56 63  350/  5/ 12 1009.1R
THOMAS POINT MD  1400   55 63  360/ 23/ 25 1012.4R
GOOSES REEF MD   1500   58      20/ 23/ 29 1011.3F
COVE POINT MD    1400   58      10/ 21/ 25 1010.6S
SOLOMONS ISLAND  1400      65                N/A
BISHOPS HEAD MD  1400   56 60  350/ 10/ 13 1009.6F
PINEY POINT MD   1400          360/ 17/ 21   N/A
POTOMAC MD       1500   57     340/ 14/ 17 1009.9S
CAMBRIDGE MD     1400   56 63   10/ 12/ 15 1010.5R
LEWISETTA VA     1400   56 63  340/ 16/ 25 1010.5F
RAPPAHANNOCK LGT 1400          350/ 22/ 25 1009.6R
STINGRAY PT      1500   57     320/ 17/ 21 1010.5R
YORK RVR RNG VA  1400   56     330/ 17/ 22 1009.8S
YORKTOWN VA      1400   57 67  320/ 24/ 28 1010.1F
JAMESTOWN VA     1500   55     340/ 16/ 21   N/A
DOMINION TERM VA 1400   56     330/  4/ 12 1010.6R
KIPTOPEKE VA     1400      69  300/ 15/ 19   N/A
CHES BAY BRIDGE  1400   56 67  290/ 22/ 25 1009.4F
CHESAPEAKE LGHT  1400   56     290/ 23/ 25 1009.6F
WILLOUBY STN VA  1400   54     310/ 18/ 21 1009.1F
S CRANEY ISL VA  1400          290/ 12/ 19 1010.2S
CAPE HENRY BUOY  1400      68                N/A     4/ 5
1ST LANDING BUOY 1500   58     320/ 21/ 27 1009.6R
CAPE CHARLES BUO 1400      68                N/A     3/ 3   2/ 8
64NM E OF VA BCH 1400   62 69  270/ 21/ 27 1007.6S   3/ 6   2/ 7
DUCK PIER NC     1400   56 68  290/ 19/ 23 1009.5S
44100 DUCK FRF   1400      71                N/A     4/ 4
44056 DUCK FRF   1400                        N/A     3/ 4
OREGON INLET NC  1400   57 67  280/ 14/ 19 1010.5R
HATTERAS NC      1400   58 70  300/ 15/ 18 1011.8S
DIAMOND SHLS NC  1400   62     300/ 21/ 25 1010.9R   4/ 5   2/10
CAPE LOOKOUT NC  1400   58     320/ 15/ 18 1013.0R
$$



USA.gov is the U.S. government's official web portal to all federal, state and local government web resources and services.